Ellensburg, WA

10:24 AM PDT on September 25, 2016 (GMT -0700)
Bowers

Weather History for KELN - May, 2012

Change the Weather History Date:

Thursday, May 31, 2012

  Actual Average (KYKM) Record (KYKM)
Temperature  
Mean Temperature 65 °F 61 °F  
Max Temperature 75 °F 76 °F 99 °F (1986)
Min Temperature 57 °F 46 °F 31 °F (1955)
Degree Days  
Heating Degree Days 0 5  
Month to date heating degree days 261  
Since 1 July heating degree days 5944  
Cooling Degree Days 0 1  
Month to date cooling degree days 19  
Year to date cooling degree days 20  
Growing Degree Days 15 (Base 50)    
Moisture  
Dew Point 48 °F    
Average Humidity 55    
Maximum Humidity 75    
Minimum Humidity 37    
Precipitation  
Precipitation 0.00 in 0.02 in 0.52 in (1958)
Month to date precipitation 0.58  
Year to date precipitation 3.67  
Snow  
Snow 0.00 in 0.00 in 0.00 in (2002)
Month to date snowfall 0.0  
Year to date snowfall 8.6  
Since 1 July snowfall 21.6  
Snow Depth -    
Sea Level Pressure  
Sea Level Pressure 30.04 in    
Wind  
Wind Speed 11 mph (NW)    
Max Wind Speed 23 mph    
Max Gust Speed 30 mph    
Visibility 10 miles    
Events      
T = Trace of Precipitation, MM = Missing Value Source: NWS Daily Summary

Daily Weather History Graph

Daily Weather History Graph

Search for Another Location

Airport or City:

Trip Planner

Search our weather history database for the weather conditions in past years. The results will help you decide how hot, cold, wet, or windy it might be!

Date:

Astronomy

May. 31, 2012 Rise Set
Actual Time 5:11 AM PDT 8:49 PM PDT
Civil Twilight 4:32 AM PDT 9:27 PM PDT
Nautical Twilight 3:41 AM PDT 10:19 PM PDT
Astronomical Twilight 2:30 AM PDT 11:31 PM PDT
Moon 4:32 PM PDT (5/31) 2:27 AM PDT (5/31)
Length of Visible Light 16h 55m
Length of Day
15h 38m
Waxing Gibbous, 81% of the Moon is Illuminated
May 31
Waxing Gibbous
Jun 4
Full
Jun 11
Last Quarter
Jun 19
New
Jun 26
First Quarter

Hourly Weather History & Observations

Time (PDT) Temp. Dew Point Humidity Pressure Visibility Wind Dir Wind Speed Gust Speed Precip Events Conditions
1:53 AM 59.0 °F 46.0 °F 62% 30.06 in 10.0 mi NW 5.8 mph - N/A   Mostly Cloudy
2:53 AM 60.1 °F 46.0 °F 60% 30.05 in 10.0 mi NNW 8.1 mph - N/A   Overcast
3:53 AM 60.1 °F 46.0 °F 60% 30.04 in 10.0 mi NW 12.7 mph - N/A   Overcast
4:53 AM 57.0 °F 46.9 °F 69% 30.04 in 10.0 mi Calm Calm - N/A   Overcast
5:53 AM 60.1 °F 48.0 °F 64% 30.04 in 10.0 mi NNW 9.2 mph - N/A   Overcast
6:53 AM 59.0 °F 51.1 °F 75% 30.06 in 10.0 mi WNW 6.9 mph - N/A   Overcast
7:53 AM 62.1 °F 51.1 °F 67% 30.07 in 10.0 mi WNW 9.2 mph - N/A   Overcast
8:53 AM 64.9 °F 51.1 °F 61% 30.08 in 10.0 mi NW 13.8 mph - N/A   Overcast
9:53 AM 70.0 °F 51.1 °F 51% 30.07 in 10.0 mi NW 13.8 mph - N/A   Mostly Cloudy
10:53 AM 68.0 °F 51.1 °F 55% 30.06 in 10.0 mi NW 13.8 mph - N/A   Overcast
11:53 AM 71.1 °F 52.0 °F 51% 30.06 in 10.0 mi NW 13.8 mph - N/A   Overcast
12:53 PM 66.9 °F 51.1 °F 57% 30.07 in 10.0 mi NW 15.0 mph - N/A   Overcast
1:53 PM 71.1 °F 50.0 °F 47% 30.06 in 10.0 mi NW 19.6 mph 23.0 mph N/A   Overcast
2:53 PM 72.0 °F 48.0 °F 43% 30.05 in 10.0 mi NW 20.7 mph - N/A   Overcast
3:53 PM 73.0 °F 46.0 °F 38% 30.03 in 10.0 mi NW 21.9 mph 29.9 mph N/A   Overcast
4:53 PM 73.9 °F 46.0 °F 37% 30.02 in 10.0 mi NW 23.0 mph 29.9 mph N/A   Clear
5:53 PM 73.0 °F 46.9 °F 39% 30.01 in 10.0 mi NW 18.4 mph 24.2 mph N/A   Overcast
6:53 PM 69.1 °F 48.0 °F 47% 30.00 in 10.0 mi NNW 16.1 mph 24.2 mph N/A   Clear
7:53 PM 66.0 °F 48.0 °F 52% 30.00 in 10.0 mi NW 11.5 mph - N/A   Partly Cloudy
8:53 PM 63.0 °F 46.9 °F 56% 30.00 in 10.0 mi NW 10.4 mph - N/A   Partly Cloudy
9:53 PM 61.0 °F 46.9 °F 60% 30.00 in 10.0 mi NW 8.1 mph - N/A   Clear
10:53 PM 61.0 °F 46.9 °F 60% 29.99 in 10.0 mi NNW 10.4 mph - N/A   Clear
11:53 PM 60.1 °F 48.0 °F 64% 29.98 in 10.0 mi Calm Calm - N/A   Clear